Tracking 28790 objects as of 19-Apr-2024
HD Live streaming from Space Station
objects crossing your sky now

FREGAT DEB

Track FREGAT DEB now!
10-day predictions


NORAD ID: 45614
Int'l Code: 2011-037H
Perigee: 653.7 km
Apogee: 2,291.7 km
Inclination: 51.3 °
Period: 115.2 minutes
Semi major axis: 7843 km
RCS: Unknown
Launch date: July 18, 2011
Source: Commonwealth of Independent States (former USSR) (CIS)
Launch site: TYURATAM MISSILE AND SPACE COMPLEX (TTMTR)

Note: This is SATELLITE DEBRIS
Your satellite tracking list
Your tracking list is empty




NASA's NSSDC Master Catalog

Two Line Element Set (TLE):
1 45614U 11037H   24109.44318231  .00049246  00000-0  40366-1 0  9999
2 45614  51.2570 167.2637 1044131  83.4828 288.3628 12.49738845168015
Source of the keplerian elements: AFSPC